When you browse on this site, cookies collect data to enhance your experience and personalize the content and advertising you see.
Visit our Privacy Policy to learn more. By continuing to use the site, you agree to this use of cookies and data.
  • In Romania
  • List of Countries
  • For 7 days
  • Water Temperature
  • Weather Map
  • Weather Widgets
  • user-avatar
    Login

    Hourly Weather Alicante

    Today, 12 November, Tuesday

    Time Temperature Precipitation Wind Pressure Humidity
    00:00 +10°C° 0 mm 5 mps 759 mmHg 57%
    01:00 +10°C° 0 mm 5 mps 759 mmHg 56%
    02:00 +9°C° 0 mm 5 mps 758 mmHg 56%
    03:00 +9°C° 0 mm 6 mps 758 mmHg 55%
    04:00 +9°C° 0 mm 5 mps 758 mmHg 56%
    05:00 +8°C° 0 mm 5 mps 758 mmHg 57%
    06:00 +8°C° 0 mm 5 mps 758 mmHg 57%
    07:00 +9°C° 0 mm 5 mps 758 mmHg 53%
    08:00 +12°C° 0 mm 5 mps 759 mmHg 50%
    09:00 +13°C° 0 mm 5 mps 759 mmHg 46%
    10:00 +14°C° 0 mm 5 mps 759 mmHg 43%
    11:00 +16°C° 0 mm 5 mps 759 mmHg 39%
    12:00 +17°C° 0 mm 5 mps 758 mmHg 35%
    13:00 +17°C° 0 mm 5 mps 758 mmHg 35%
    14:00 +19°C° 0 mm 5 mps 757 mmHg 35%
    15:00 +19°C° 0 mm 5 mps 756 mmHg 34%
    16:00 +17°C° 0 mm 5 mps 757 mmHg 38%
    17:00 +15°C° 0 mm 6 mps 757 mmHg 42%
    18:00 +14°C° 0 mm 6 mps 757 mmHg 46%
    19:00 +14°C° 0 mm 6 mps 757 mmHg 47%
    20:00 +13°C° 0 mm 6 mps 757 mmHg 49%
    21:00 +12°C° 0 mm 5 mps 758 mmHg 51%
    22:00 +12°C° 0 mm 5 mps 757 mmHg 53%
    23:00 +12°C° 0 mm 5 mps 757 mmHg 55%

    Tomorrow, 13 November, Wednesday

    Time Temperature Precipitation Wind Pressure Humidity
    00:00 +12°C° 0 mm 5 mps 757 mmHg 56%
    01:00 +12°C° 0 mm 4 mps 756 mmHg 55%
    02:00 +12°C° 0 mm 4 mps 756 mmHg 54%
    03:00 +13°C° 0 mm 4 mps 755 mmHg 54%
    04:00 +12°C° 0 mm 4 mps 755 mmHg 55%
    05:00 +12°C° 0 mm 4 mps 755 mmHg 57%
    06:00 +12°C° 0 mm 5 mps 754 mmHg 59%
    07:00 +14°C° 0 mm 7 mps 754 mmHg 59%
    08:00 +15°C° 0 mm 9 mps 754 mmHg 59%
    09:00 +17°C° 0 mm 11 mps 754 mmHg 59%
    10:00 +18°C° 0 mm 11 mps 754 mmHg 56%
    11:00 +19°C° 0 mm 12 mps 754 mmHg 53%
    12:00 +21°C° 0 mm 12 mps 754 mmHg 50%
    13:00 +21°C° 0 mm 11 mps 754 mmHg 48%
    14:00 +22°C° 0 mm 10 mps 754 mmHg 45%
    15:00 +22°C° 0 mm 9 mps 754 mmHg 42%
    16:00 +20°C° 0 mm 8 mps 755 mmHg 46%
    17:00 +19°C° 0 mm 6 mps 756 mmHg 50%
    18:00 +16°C° 0 mm 5 mps 757 mmHg 54%
    19:00 +17°C° 0 mm 4 mps 757 mmHg 58%
    20:00 +15°C° 0 mm 4 mps 757 mmHg 63%
    21:00 +16°C° 0 mm 3 mps 757 mmHg 68%
    22:00 +16°C° 0 mm 3 mps 757 mmHg 69%
    23:00 +16°C° 0 mm 3 mps 757 mmHg 70%

    Day after tomorrow, 14 November, Thursday

    Time Temperature Precipitation Wind Pressure Humidity
    00:00 +14°C° 0 mm 3 mps 756 mmHg 72%
    01:00 +14°C° 0 mm 3 mps 756 mmHg 71%
    02:00 +14°C° 0 mm 3 mps 755 mmHg 70%
    03:00 +14°C° 0 mm 3 mps 754 mmHg 70%
    04:00 +13°C° 0 mm 3 mps 753 mmHg 71%
    05:00 +13°C° 0 mm 3 mps 753 mmHg 73%
    06:00 +12°C° 0 mm 3 mps 752 mmHg 75%
    07:00 +14°C° 0 mm 5 mps 752 mmHg 68%
    08:00 +15°C° 0 mm 6 mps 752 mmHg 62%
    09:00 +16°C° 0 mm 7 mps 752 mmHg 55%
    10:00 +16°C° 0 mm 8 mps 752 mmHg 53%
    11:00 +16°C° 0 mm 10 mps 752 mmHg 52%
    12:00 +16°C° 0 mm 11 mps 752 mmHg 50%
    13:00 +14°C° 0.1 mm 11 mps 752 mmHg 49%
    14:00 +13°C° 0.1 mm 10 mps 751 mmHg 48%
    15:00 +13°C° 0.1 mm 10 mps 751 mmHg 47%
    16:00 +12°C° 0 mm 9 mps 751 mmHg 47%
    17:00 +12°C° 0 mm 9 mps 751 mmHg 47%
    18:00 +11°C° 0 mm 9 mps 752 mmHg 46%
    19:00 +11°C° 0 mm 9 mps 752 mmHg 50%
    20:00 +10°C° 0 mm 9 mps 752 mmHg 54%
    21:00 +8°C° 0 mm 9 mps 752 mmHg 58%
    22:00 +9°C° 0 mm 8 mps 752 mmHg 57%
    23:00 +8°C° 0 mm 7 mps 753 mmHg 57%

    15 November, Friday

    Time Temperature Precipitation Wind Pressure Humidity
    00:00 +8°C° 0 mm 6 mps 753 mmHg 56%
    01:00 +7°C° 0 mm 6 mps 753 mmHg 59%
    02:00 +7°C° 0 mm 5 mps 752 mmHg 61%
    03:00 +7°C° 0 mm 5 mps 752 mmHg 64%
    04:00 +7°C° 0 mm 5 mps 752 mmHg 65%
    05:00 +6°C° 0 mm 5 mps 753 mmHg 66%
    06:00 +6°C° 0 mm 5 mps 753 mmHg 68%
    07:00 +7°C° 0 mm 5 mps 753 mmHg 63%
    08:00 +8°C° 0 mm 6 mps 753 mmHg 59%
    09:00 +9°C° 0 mm 7 mps 753 mmHg 55%
    10:00 +10°C° 0 mm 7 mps 753 mmHg 50%
    11:00 +11°C° 0 mm 7 mps 753 mmHg 46%
    12:00 +12°C° 0 mm 7 mps 752 mmHg 41%
    13:00 +12°C° 0 mm 7 mps 752 mmHg 41%
    14:00 +12°C° 0 mm 7 mps 752 mmHg 41%
    15:00 +12°C° 0 mm 7 mps 752 mmHg 41%
    16:00 +11°C° 0 mm 7 mps 752 mmHg 44%
    17:00 +10°C° 0 mm 6 mps 752 mmHg 48%
    18:00 +8°C° 0 mm 5 mps 753 mmHg 51%
    19:00 +8°C° 0 mm 5 mps 753 mmHg 52%
    20:00 +8°C° 0 mm 4 mps 753 mmHg 53%
    21:00 +7°C° 0 mm 4 mps 754 mmHg 54%
    22:00 +7°C° 0 mm 4 mps 754 mmHg 54%
    23:00 +7°C° 0 mm 4 mps 754 mmHg 53%

    16 November, Saturday

    Time Temperature Precipitation Wind Pressure Humidity
    00:00 +7°C° 0 mm 4 mps 754 mmHg 53%
    01:00 +7°C° 0 mm 4 mps 754 mmHg 55%
    02:00 +6°C° 0 mm 5 mps 754 mmHg 56%
    03:00 +6°C° 0 mm 5 mps 754 mmHg 57%
    04:00 +6°C° 0 mm 5 mps 755 mmHg 58%
    05:00 +6°C° 0 mm 5 mps 755 mmHg 58%
    06:00 +6°C° 0 mm 5 mps 755 mmHg 59%
    07:00 +7°C° 0 mm 5 mps 756 mmHg 56%
    08:00 +8°C° 0 mm 6 mps 757 mmHg 52%
    09:00 +9°C° 0 mm 6 mps 757 mmHg 48%
    10:00 +11°C° 0 mm 6 mps 757 mmHg 45%
    11:00 +13°C° 0 mm 6 mps 757 mmHg 41%
    12:00 +14°C° 0 mm 6 mps 757 mmHg 37%
    13:00 +14°C° 0 mm 7 mps 757 mmHg 37%
    14:00 +14°C° 0 mm 7 mps 757 mmHg 36%
    15:00 +13°C° 0 mm 8 mps 757 mmHg 36%
    16:00 +12°C° 0 mm 7 mps 757 mmHg 39%
    17:00 +11°C° 0 mm 7 mps 758 mmHg 43%
    18:00 +10°C° 0 mm 6 mps 758 mmHg 46%
    19:00 +9°C° 0 mm 6 mps 758 mmHg 46%
    20:00 +9°C° 0 mm 6 mps 759 mmHg 47%
    21:00 +9°C° 0 mm 6 mps 759 mmHg 48%
    22:00 +8°C° 0 mm 6 mps 759 mmHg 50%
    23:00 +8°C° 0 mm 6 mps 759 mmHg 53%

    17 November, Sunday

    Time Temperature Precipitation Wind Pressure Humidity
    00:00 +7°C° 0 mm 5 mps 759 mmHg 55%
    01:00 +7°C° 0 mm 5 mps 759 mmHg 56%
    02:00 +7°C° 0 mm 5 mps 759 mmHg 57%
    03:00 +6°C° 0 mm 4 mps 759 mmHg 58%
    04:00 +6°C° 0 mm 4 mps 758 mmHg 58%
    05:00 +6°C° 0 mm 4 mps 758 mmHg 57%
    06:00 +6°C° 0 mm 4 mps 758 mmHg 57%
    07:00 +7°C° 0 mm 4 mps 759 mmHg 53%
    08:00 +10°C° 0 mm 4 mps 759 mmHg 49%
    09:00 +11°C° 0 mm 4 mps 759 mmHg 44%
    10:00 +12°C° 0 mm 4 mps 759 mmHg 43%
    11:00 +14°C° 0 mm 4 mps 758 mmHg 42%
    12:00 +15°C° 0 mm 4 mps 758 mmHg 41%
    13:00 +17°C° 0 mm 4 mps 757 mmHg 41%
    14:00 +17°C° 0 mm 4 mps 757 mmHg 41%
    15:00 +18°C° 0 mm 4 mps 757 mmHg 40%
    16:00 +17°C° 0 mm 4 mps 757 mmHg 44%
    17:00 +14°C° 0 mm 4 mps 757 mmHg 48%
    18:00 +13°C° 0 mm 3 mps 757 mmHg 52%
    19:00 +13°C° 0 mm 3 mps 757 mmHg 54%
    20:00 +12°C° 0 mm 3 mps 756 mmHg 56%
    21:00 +12°C° 0 mm 3 mps 756 mmHg 58%
    22:00 +12°C° 0 mm 3 mps 756 mmHg 62%
    23:00 +12°C° 0 mm 3 mps 755 mmHg 66%
    Show more